KK4OHF Weather Reports


time (UTC)temp
F
wind
direction
speed
knots
gust
knots
rain 1hr
in
rain 24hr
in
rain mn
in
humidity
%
barometer
mb
20260906105505 72 355 0.0 0.0 0.00 0.00 0.00 90 1012.5
20260906105005 72 355 0.0 0.0 0.00 0.00 0.00 90 1012.5
20260906104005 72 355 0.0 0.0 0.00 0.00 0.00 90 1012.4
20260906103506 72 355 0.0 0.0 0.00 0.00 0.00 90 1012.4
20260906102505 72 355 0.0 0.0 0.00 0.00 0.00 90 1012.3
20260906101005 72 355 0.0 0.9 0.00 0.00 0.00 90 1012.3
20260906100506 72 355 0.0 0.0 0.00 0.00 0.00 90 1012.3
20260906100005 72 355 0.0 0.9 0.00 0.00 0.00 90 1012.4
20260906095505 72 355 0.0 0.0 0.00 0.00 0.00 90 1012.4
20260906095005 72 355 0.0 0.0 0.00 0.00 0.00 89 1012.3
20260906094505 72 355 0.0 0.0 0.00 0.00 0.00 89 1012.3
20260906094005 72 355 0.0 0.0 0.00 0.00 0.00 89 1012.3
20260906093505 72 355 0.0 0.0 0.00 0.00 0.00 89 1012.3
20260906093005 72 355 0.0 0.9 0.00 0.00 0.00 89 1012.1
20260906092505 72 355 0.0 0.0 0.00 0.00 0.00 89 1012.1
20260906092005 72 355 0.9 1.7 0.00 0.00 0.00 89 1012.0
20260906091505 73 355 0.9 1.7 0.00 0.00 0.00 89 1012.0
20260906091006 73 355 0.9 1.7 0.00 0.00 0.00 89 1012.0
20260906090504 73 297 0.9 1.7 0.00 0.00 0.00 89 1012.0
20260906090005 73 280 0.0 0.9 0.00 0.00 0.00 89 1011.7
20260906085504 73 280 0.0 0.0 0.00 0.00 0.00 89 1011.7
20260906085006 73 280 0.0 0.0 0.00 0.00 0.00 89 1011.7
20260906084506 73 280 0.0 0.0 0.00 0.00 0.00 89 1011.7
20260906084005 73 280 0.0 0.0 0.00 0.00 0.00 89 1011.7
20260906083506 73 280 0.0 0.0 0.00 0.00 0.00 89 1011.7
20260906083005 73 280 0.0 0.9 0.00 0.00 0.00 89 1012.0
20260906082505 73 280 0.0 0.0 0.00 0.00 0.00 89 1012.0
20260906082005 73 280 0.0 0.0 0.00 0.00 0.00 89 1012.0
20260906081505 73 280 0.0 0.9 0.00 0.00 0.00 89 1012.0
20260906081006 73 280 0.0 0.9 0.00 0.00 0.00 89 1011.9
20260906080505 73 280 0.0 0.0 0.00 0.00 0.00 89 1011.9
20260906080004 73 280 0.0 0.0 0.00 0.00 0.00 89 1012.0
20260906075505 73 280 0.0 0.0 0.00 0.00 0.00 89 1012.0
20260906075005 73 280 0.0 0.9 0.00 0.00 0.00 89 1012.0
20260906074504 73 280 0.0 0.0 0.00 0.00 0.00 89 1012.0
20260906074005 73 280 0.0 0.9 0.00 0.00 0.00 88 1012.0
20260906073505 73 280 0.0 0.0 0.00 0.00 0.00 88 1012.0
20260906072005 74 280 0.0 0.9 0.00 0.00 0.00 88 1011.9
20260906071005 74 280 0.0 0.0 0.00 0.00 0.00 88 1012.0
20260906070505 74 280 0.0 0.0 0.00 0.00 0.00 88 1012.0
20260906070005 74 280 0.0 0.0 0.00 0.00 0.00 87 1012.0
20260906065005 74 280 0.0 0.0 0.00 0.00 0.00 88 1012.0
20260906064505 74 280 0.0 0.0 0.00 0.00 0.00 88 1012.0
20260906064005 74 280 0.0 0.0 0.00 0.00 0.00 87 1012.1
20260906063505 74 280 0.0 0.0 0.00 0.00 0.00 87 1012.1
20260906062505 74 280 0.0 0.9 0.00 0.00 0.00 87 1012.1
20260906062005 74 280 0.9 1.7 0.00 0.00 0.00 87 1012.1
20260906061505 75 280 0.9 1.7 0.00 0.00 0.00 87 1012.1
20260906060505 75 280 0.0 0.9 0.00 0.00 0.00 87 1012.1
20260906060005 75 280 0.0 0.9 0.00 0.00 0.00 87 1012.2
20260906055005 75 271 0.9 1.7 0.00 0.00 0.00 86 1012.1
20260906054005 75 250 0.0 0.9 0.00 0.00 0.00 86 1012.5
20260906053005 75 250 0.0 0.9 0.00 0.00 0.00 86 1012.6
20260906052505 75 250 0.0 0.9 0.00 0.00 0.00 86 1012.6
20260906052005 76 250 0.0 0.9 0.00 0.00 0.00 86 1012.6
20260906051506 76 250 0.9 2.6 0.00 0.00 0.00 85 1012.6
20260906051005 76 283 0.9 2.6 0.00 0.00 0.00 85 1012.6
20260906050505 76 128 0.0 0.9 0.00 0.00 0.00 85 1012.6
20260906045504 76 128 0.0 1.7 0.00 0.00 0.00 84 1012.6
20260906045005 76 128 0.0 0.0 0.00 0.00 0.00 84 1012.7
20260906044005 76 128 0.0 0.9 0.00 0.00 0.00 84 1012.7
20260906043505 77 128 0.0 0.0 0.00 0.00 0.00 83 1012.7
20260906043005 77 128 0.0 1.7 0.00 0.00 0.00 83 1012.7
20260906042004 77 128 0.0 0.9 0.00 0.00 0.00 83 1012.7
20260906041505 77 128 0.0 0.0 0.00 0.00 0.00 82 1012.7
20260906041006 77 128 0.0 0.0 0.00 0.00 0.00 82 1012.8
20260906040506 77 128 0.0 0.0 0.00 0.00 0.00 81 1012.8
20260906040005 78 128 0.0 0.0 0.00 0.00 0.00 81 1013.0
20260906035505 78 128 0.0 0.0 0.00 0.00 0.00 81 1013.0
20260906034505 78 128 0.0 0.0 0.00 0.00 0.00 80 1013.0
20260906034005 78 128 0.0 0.0 0.00 0.00 0.00 80 1012.8
20260906033505 78 128 0.0 0.9 0.00 0.00 0.00 80 1012.8
20260906033005 78 128 0.0 0.0 0.00 0.00 0.00 79 1013.1
20260906032505 79 128 0.0 0.9 0.00 0.00 0.00 79 1013.1
20260906032006 79 128 0.0 0.0 0.00 0.00 0.00 78 1013.1
20260906031505 79 128 0.0 0.0 0.00 0.00 0.00 77 1013.1
20260906031005 79 128 0.0 0.9 0.00 0.00 0.00 77 1013.5
20260906030505 79 128 0.0 0.9 0.00 0.00 0.00 77 1013.5
20260906030006 79 128 0.0 0.0 0.00 0.00 0.00 77 1013.5
20260906025504 80 128 0.0 0.9 0.00 0.00 0.00 77 1013.5
20260906025005 80 128 0.0 0.0 0.00 0.00 0.00 76 1013.2
20260906024505 80 128 0.0 0.0 0.00 0.00 0.00 76 1013.2
20260906024006 80 128 0.9 1.7 0.00 0.00 0.00 76 1013.3
20260906023505 80 128 0.0 0.0 0.00 0.00 0.00 75 1013.3
20260906023005 80 128 0.0 1.7 0.00 0.00 0.00 75 1013.2
20260906022505 80 128 0.9 1.7 0.00 0.00 0.00 74 1013.2
20260906022005 80 128 0.0 0.9 0.00 0.00 0.00 74 1013.2
20260906021505 80 128 0.0 0.9 0.00 0.00 0.00 74 1013.3
20260906021006 80 128 0.0 0.9 0.00 0.00 0.00 74 1013.3
20260906020505 81 128 0.0 1.7 0.00 0.00 0.00 73 1013.3
20260906020005 81 91 0.0 1.7 0.00 0.00 0.00 73 1013.4
20260906015506 81 111 0.9 2.6 0.00 0.00 0.00 73 1013.4
20260906015004 81 121 0.0 1.7 0.00 0.00 0.00 73 1012.9
20260906014504 81 153 0.0 0.9 0.00 0.00 0.00 72 1012.9
20260906014006 81 153 0.0 0.9 0.00 0.00 0.00 73 1012.9
20260906013505 81 153 0.0 0.0 0.00 0.00 0.00 73 1012.9
20260906013005 82 153 0.0 0.9 0.00 0.00 0.00 72 1012.9
20260906012505 82 153 0.0 0.0 0.00 0.00 0.00 72 1012.9
20260906012005 82 153 0.0 0.0 0.00 0.00 0.00 72 1012.6
20260906011506 82 153 0.0 0.0 0.00 0.00 0.00 71 1012.6
20260906011005 82 153 0.0 0.9 0.00 0.00 0.00 71 1012.6
20260906010506 82 153 0.9 2.6 0.00 0.00 0.00 71 1012.6
20260906005504 83 197 0.9 1.7 0.00 0.00 0.00 69 1011.5
20260906005004 83 197 0.0 1.7 0.00 0.00 0.00 69 1011.5
20260906004505 83 197 0.0 0.9 0.00 0.00 0.00 68 1011.5
20260906004005 83 197 0.0 0.0 0.00 0.00 0.00 68 1011.5
20260906003505 83 197 0.0 1.7 0.00 0.00 0.00 68 1011.5
20260906002505 84 197 0.0 0.9 0.00 0.00 0.00 67 1011.3
20260906002005 84 197 0.0 0.9 0.00 0.00 0.00 66 1011.3
20260906001006 85 197 0.9 1.7 0.00 0.00 0.00 64 1011.6
20260906000504 85 197 0.0 1.7 0.00 0.00 0.00 64 1011.6
20260906000005 85 189 0.0 1.7 0.00 0.00 0.00 63 1011.1
20260905235504 85 119 0.0 1.7 0.00 0.00 0.00 62 1011.1
20260905235005 86 119 0.9 2.6 0.00 0.00 0.00 62 1011.1
20260905234505 86 25 2.6 5.2 0.00 0.00 0.00 61 1011.0
20260905234005 87 21 1.7 6.1 0.00 0.00 0.00 60 1011.0
20260905233506 88 15 1.7 2.6 0.00 0.00 0.00 59 1011.0
20260905233005 89 356 1.7 4.3 0.00 0.00 0.00 58 1010.9
20260905232505 89 3 2.6 6.1 0.00 0.00 0.00 57 1010.9
20260905232005 90 26 2.6 6.1 0.00 0.00 0.00 57 1010.9
20260905231006 93 12 2.6 4.3 0.00 0.00 0.00 60 1010.8
20260905230506 94 17 1.7 2.6 0.00 0.00 0.00 62 1010.8
20260905230005 95 119 0.0 1.7 0.00 0.00 0.00 62 1010.8
20260905225505 95 119 0.0 1.7 0.00 0.00 0.00 57 1010.8
20260905225006 95 119 0.0 0.0 0.00 0.00 0.00 56 1010.7
20260905224505 95 119 0.0 0.9 0.00 0.00 0.00 54 1010.5
20260905224005 95 119 0.0 1.7 0.00 0.00 0.00 52 1010.5
20260905223505 95 119 0.9 2.6 0.00 0.00 0.00 51 1010.5
20260905222505 96 252 0.0 0.9 0.00 0.00 0.00 49 1010.8
20260905222006 96 252 0.0 0.9 0.00 0.00 0.00 49 1010.8
20260905221506 96 252 0.0 0.9 0.00 0.00 0.00 50 1010.8
20260905220505 96 252 0.0 0.9 0.00 0.00 0.00 47 1010.8
20260905220005 96 252 0.9 0.9 0.00 0.00 0.00 46 1010.4
20260905215006 97 107 0.0 0.9 0.00 0.00 0.00 46 1010.4
20260905214505 97 107 0.0 1.7 0.00 0.00 0.00 46 1010.4
20260905214006 97 130 0.0 1.7 0.00 0.00 0.00 45 1010.4
20260905213006 97 219 0.9 1.7 0.00 0.00 0.00 45 1010.6
20260905212506 97 137 0.9 1.7 0.00 0.00 0.00 46 1010.6
20260905211505 97 284 0.9 5.2 0.00 0.00 0.00 45 1010.9
20260905211005 98 77 0.9 5.2 0.00 0.00 0.00 45 1010.9
20260905210505 98 313 0.9 1.7 0.00 0.00 0.00 45 1010.9
20260905210005 98 332 0.9 2.6 0.00 0.00 0.00 45 1011.1
20260905205506 98 96 0.9 2.6 0.00 0.00 0.00 46 1011.1
20260905204505 97 296 0.9 1.7 0.00 0.00 0.00 46 1011.1
20260905204005 97 94 1.7 5.2 0.00 0.00 0.00 45 1011.3
20260905203005 97 121 0.9 4.3 0.00 0.00 0.00 44 1011.5
20260905202506 98 153 0.9 4.3 0.00 0.00 0.00 43 1011.5
20260905202006 98 285 0.9 2.6 0.00 0.00 0.00 45 1011.5
20260905201505 98 153 0.9 2.6 0.00 0.00 0.00 44 1011.5
20260905200506 98 139 0.9 2.6 0.00 0.00 0.00 45 1011.5
20260905200005 98 332 1.7 4.3 0.00 0.00 0.00 45 1011.8
20260905195505 98 109 1.7 2.6 0.00 0.00 0.00 46 1011.8
20260905195006 97 300 0.9 1.7 0.00 0.00 0.00 46 1011.9
20260905194504 97 22 0.9 1.7 0.00 0.00 0.00 47 1011.9
20260905194005 97 16 0.0 2.6 0.00 0.00 0.00 49 1011.9
20260905193505 96 4 1.7 2.6 0.00 0.00 0.00 48 1011.9
20260905193006 97 7 1.7 2.6 0.00 0.00 0.00 47 1012.1
20260905192006 97 38 0.9 1.7 0.00 0.00 0.00 48 1012.1
20260905191506 96 342 0.9 2.6 0.00 0.00 0.00 47 1012.1
20260905191005 96 345 0.9 2.6 0.00 0.00 0.00 47 1012.3
20260905190504 97 98 0.9 2.6 0.00 0.00 0.00 46 1012.3
20260905190005 98 325 1.7 4.3 0.00 0.00 0.00 47 1012.6
20260905185505 98 20 0.9 2.6 0.00 0.00 0.00 46 1012.6
20260905185005 97 28 0.9 2.6 0.00 0.00 0.00 49 1012.6
20260905184505 97 123 0.9 2.6 0.00 0.00 0.00 48 1012.6
20260905183506 95 15 1.7 4.3 0.00 0.00 0.00 52 1012.8
20260905183005 95 23 0.9 1.7 0.00 0.00 0.00 51 1013.1
20260905182505 95 289 0.9 1.7 0.00 0.00 0.00 49 1013.1
20260905182005 96 5 1.7 4.3 0.00 0.00 0.00 49 1013.1
20260905181506 96 17 1.7 4.3 0.00 0.00 0.00 50 1013.0
20260905180506 95 18 1.7 2.6 0.00 0.00 0.00 51 1013.1
20260905180005 95 4 0.9 2.6 0.00 0.00 0.00 51 1013.2
20260905175505 95 15 0.9 4.3 0.00 0.00 0.00 52 1013.2
20260905175005 96 14 0.9 4.3 0.00 0.00 0.00 53 1013.2
20260905174505 95 295 0.9 1.7 0.00 0.00 0.00 53 1013.3
20260905173505 94 345 0.9 4.3 0.00 0.00 0.00 53 1013.6
20260905173006 95 356 0.9 2.6 0.00 0.00 0.00 51 1013.6
20260905172505 95 41 0.9 4.3 0.00 0.00 0.00 52 1013.6
20260905171506 95 124 0.9 2.6 0.00 0.00 0.00 54 1013.6
20260905171005 94 74 0.9 2.6 0.00 0.00 0.00 55 1013.7
20260905170505 94 5 1.7 2.6 0.00 0.00 0.00 54 1013.7
20260905170004 94 348 1.7 2.6 0.00 0.00 0.00 52 1013.7
20260905165505 94 7 1.7 2.6 0.00 0.00 0.00 52 1013.7
20260905165005 94 11 0.9 1.7 0.00 0.00 0.00 53 1014.2
20260905164504 94 30 0.9 2.6 0.00 0.00 0.00 53 1014.2
20260905164004 93 14 1.7 4.3 0.00 0.00 0.00 54 1014.2
20260905163505 93 5 1.7 4.3 0.00 0.00 0.00 54 1014.2
20260905163006 93 51 1.7 4.3 0.00 0.00 0.00 54 1014.2
20260905162505 94 11 0.9 2.6 0.00 0.00 0.00 54 1014.2
20260905161504 93 7 1.7 6.1 0.00 0.00 0.00 55 1014.2
20260905161006 93 344 0.9 4.3 0.00 0.00 0.00 56 1014.3
20260905160505 92 19 0.9 4.3 0.00 0.00 0.00 59 1014.3
20260905160005 92 342 2.6 4.3 0.00 0.00 0.00 57 1014.5
20260905155506 92 350 0.9 2.6 0.00 0.00 0.00 57 1014.5
20260905155005 92 356 1.7 2.6 0.00 0.00 0.00 58 1014.5
20260905154505 92 5 0.9 2.6 0.00 0.00 0.00 57 1014.5
20260905154005 92 280 1.7 2.6 0.00 0.00 0.00 59 1014.6
20260905153005 91 348 1.7 5.2 0.00 0.00 0.00 60 1014.5
20260905152505 91 10 0.9 2.6 0.00 0.00 0.00 62 1014.5
20260905152006 90 344 1.7 2.6 0.00 0.00 0.00 63 1014.5
20260905151505 90 356 1.7 2.6 0.00 0.00 0.00 61 1014.5
20260905150505 90 353 0.9 2.6 0.00 0.00 0.00 62 1014.5
20260905150005 90 28 1.7 2.6 0.00 0.00 0.00 62 1014.7
20260905145005 89 289 0.9 4.3 0.00 0.00 0.00 62 1014.7
20260905144506 90 279 1.7 4.3 0.00 0.00 0.00 61 1014.7
20260905144006 90 250 0.9 2.6 0.00 0.00 0.00 64 1014.7
20260905143505 88 254 0.9 2.6 0.00 0.00 0.00 67 1014.7
20260905142005 87 227 0.9 2.6 0.00 0.00 0.00 68 1014.7
20260905141505 87 237 0.9 1.7 0.00 0.00 0.00 69 1014.7
20260905141005 87 259 0.0 1.7 0.00 0.00 0.00 71 1014.7
20260905140505 86 253 0.0 1.7 0.00 0.00 0.00 71 1014.7
20260905135505 84 237 0.9 2.6 0.00 0.00 0.00 73 1014.7
20260905135005 83 252 1.7 4.3 0.00 0.00 0.00 76 1014.7
20260905134505 81 260 1.7 2.6 0.00 0.00 0.00 81 1014.7
20260905134005 79 293 0.0 2.6 0.00 0.00 0.00 88 1014.9
20260905133505 77 284 0.9 2.6 0.00 0.00 0.00 89 1014.9
20260905133005 76 248 0.9 1.7 0.00 0.00 0.00 89 1014.9
20260905132505 75 289 0.0 2.6 0.00 0.00 0.00 89 1014.9
20260905132005 75 250 0.9 1.7 0.00 0.00 0.00 89 1015.0
20260905131504 74 250 0.9 1.7 0.00 0.00 0.00 89 1015.1
20260905131005 74 250 0.9 2.6 0.00 0.00 0.00 89 1015.2
20260905130505 74 245 0.0 0.9 0.00 0.00 0.00 89 1015.2
20260905130005 74 245 0.9 2.6 0.00 0.00 0.00 89 1015.2
20260905125505 73 293 1.7 2.6 0.00 0.00 0.00 89 1015.2
20260905125005 73 214 0.9 1.7 0.00 0.00 0.00 89 1015.1
20260905124505 73 214 0.9 2.6 0.00 0.00 0.00 89 1015.1
20260905123505 72 214 0.9 1.7 0.00 0.00 0.00 89 1015.2
20260905123005 72 214 0.0 0.9 0.00 0.00 0.00 90 1014.8
20260905122504 72 214 0.0 0.0 0.00 0.00 0.00 89 1014.8
20260905122005 71 214 0.0 0.0 0.00 0.00 0.00 90 1014.8
20260905121505 71 214 0.0 0.0 0.00 0.00 0.00 90 1014.8
20260905121005 71 214 0.0 0.0 0.00 0.00 0.00 90 1014.7
20260905120505 71 214 0.0 0.0 0.00 0.00 0.00 90 1014.7
20260905120005 71 214 0.0 0.0 0.00 0.00 0.00 90 1014.7
20260905115505 71 214 0.0 0.0 0.00 0.00 0.00 90 1014.7
20260905115006 71 214 0.0 0.0 0.00 0.00 0.00 90 1014.6
20260905114005 71 214 0.0 0.0 0.00 0.00 0.00 90 1014.4
20260905113006 71 214 0.0 0.9 0.00 0.00 0.00 90 1014.4
20260905112005 71 214 0.0 0.9 0.00 0.00 0.00 90 1014.2
20260905111505 71 214 0.0 0.9 0.00 0.00 0.00 90 1014.2
20260905111006 71 214 0.0 0.0 0.00 0.00 0.00 90 1014.2
20260905110505 71 214 0.0 0.9 0.00 0.00 0.00 90 1014.2
20260905110005 71 214 0.0 0.0 0.00 0.00 0.00 90 1014.1